カタログに戻る

STARLINK-4447

運用中通信SSO
NORAD 53472·PAYLOAD·🇺🇸 United States

打ち上げ Aug 12, 2022 から Vandenberg Space Force Base

Loading…

次のパス (今後24時間)

TLE

最新Source: CelesTrak SupGP

元期: Sep 14, 2026, 20:40 UTC

1 53472C 22099H   26257.86159722  .00310890  00000+0  18862-1 0  2578
2 53472  97.2859  11.9675 0001475  92.0106  77.3828 15.10466855    14

AllMySatでSTARLINK-4447をリアルタイム追跡

Download on the App Store